Location: Finkenwalde
(53.3770°N, 14.6418°E)
Time: 03:57:32
(UTC+00:00)

CZ-2C R/B - Pass Details

Date: 05 February 2023
Orbit: 579 x 35540 km, 87.3° (Epoch: 24 March)

Event Time Altitude Azimuth Distance (km) Brightness Sun altitude
Rises 18:25:26 0° 359° (N) 2,873 6.1 -23.1°
Reaches altitude 10° 18:26:55 10° 2° (N) 2,120 5.3 -23.3°
Maximum altitude 18:30:43 70° 88° (E) 1,107 3.5 -23.8°
Drops below altitude 10° 18:42:23 10° 172° (S) 6,267 7.5 -25.6°
Sets 18:50:53 0° 176° (S) 9,875 8.5 -26.8°
